Weather History for Lancaster, OH

Change the Weather History Date:

Monday, June 9, 2014

  Actual Average Record
Temperature  
Mean Temperature 62 °F -  
Max Temperature 73 °F 80 °F 95 °F (1999)
Min Temperature 52 °F 57 °F 45 °F (1975)
Degree Days  
Heating Degree Days 3    
Growing Degree Days 12 (Base 50)    
Moisture  
Dew Point 55 °F    
Average Humidity 89    
Maximum Humidity 100    
Minimum Humidity 61    
Precipitation  
Precipitation 0.00 in - - ()
Sea Level Pressure  
Sea Level Pressure 29.96 in    
Wind  
Wind Speed 1 mph (NNE)    
Max Wind Speed 6 mph    
Max Gust Speed -    
Visibility 4 miles    
Events Fog    
Averages and records for this station are not official NWS values.
T = Trace of Precipitation, MM = Missing Value Source: NWS Daily Summary

Daily Weather History Graph

Daily Weather History Graph

Search for Another Location

Airport:

Trip Planner

Search our weather history database for the weather conditions in past years. The results will help you decide how hot, cold, wet, or windy it might be!

Date:

Astronomy

Jun. 09, 2014 Rise Set
Actual Time 6:02 AM EDT 8:57 PM EDT
Civil Twilight 5:29 AM EDT 9:30 PM EDT
Nautical Twilight 4:48 AM EDT 10:11 PM EDT
Astronomical Twilight 4:01 AM EDT 10:58 PM EDT
Moon 5:17 PM EDT (6/9) 3:28 AM EDT (6/9)
Length of Visible Light 16h 00m
Length of Day
14h 55m
Waxing Gibbous, 85% of the Moon is Illuminated
Jun 9
Waxing Gibbous
Jun 13
Full
Jun 19
Last Quarter
Jun 27
New
Jul 5
First Quarter

Hourly Weather History & Observations

Time (EDT) Temp. Dew Point Humidity Pressure Visibility Wind Dir Wind Speed Gust Speed Precip Events Conditions
12:00 AM 55.9 °F 54.0 °F 93% 29.97 in 1.0 mi Calm Calm - N/A   Clear
12:12 AM 55.9 °F 54.0 °F 93% 29.98 in 0.5 mi Calm Calm - N/A Fog Fog
12:18 AM 55.9 °F 55.0 °F 97% 29.98 in 1.2 mi Calm Calm - N/A   Scattered Clouds
12:28 AM 55.9 °F 54.0 °F 93% 29.98 in 0.8 mi Calm Calm - N/A   Mist
12:40 AM 55.9 °F 54.0 °F 93% 29.98 in 1.5 mi Calm Calm - N/A   Partly Cloudy
12:53 AM 55.9 °F 54.0 °F 93% 29.97 in 1.2 mi Calm Calm - N/A   Clear
1:11 AM 55.9 °F 54.0 °F 93% 29.98 in 1.0 mi Calm Calm - N/A   Clear
1:18 AM 55.0 °F 54.0 °F 96% 29.97 in 1.5 mi Calm Calm - N/A   Clear
1:30 AM 55.0 °F 54.0 °F 96% 29.98 in 0.8 mi Calm Calm - N/A   Clear
1:39 AM 54.0 °F 54.0 °F 100% 29.98 in 0.2 mi Calm Calm - N/A Fog Fog
1:53 AM 55.9 °F 54.0 °F 93% 29.96 in 2.5 mi Calm Calm - N/A   Partly Cloudy
2:04 AM 55.9 °F 54.0 °F 93% 29.97 in 1.8 mi North 3.5 mph - N/A   Partly Cloudy
2:32 AM 55.0 °F 53.1 °F 93% 29.98 in 2.0 mi North 3.5 mph - N/A   Clear
2:45 AM 55.0 °F 53.1 °F 93% 29.97 in 2.5 mi North 4.6 mph - N/A   Clear
2:53 AM 55.9 °F 54.0 °F 93% 29.96 in 2.0 mi North 4.6 mph - N/A   Clear
3:25 AM 55.9 °F 54.0 °F 93% 29.97 in 1.5 mi North 3.5 mph - N/A   Clear
3:53 AM 55.9 °F 54.0 °F 93% 29.95 in 1.2 mi Calm Calm - N/A   Clear
4:18 AM 57.0 °F 55.0 °F 93% 29.95 in 2.5 mi NNW 4.6 mph - N/A   Clear
4:30 AM 57.0 °F 55.0 °F 93% 29.95 in 3.0 mi NNW 4.6 mph - N/A   Clear
4:53 AM 55.9 °F 54.0 °F 93% 29.95 in 3.0 mi Calm Calm - N/A   Clear
5:09 AM 54.0 °F 52.0 °F 93% 29.97 in 2.0 mi Calm Calm - N/A   Clear
5:19 AM 54.0 °F 52.0 °F 93% 29.96 in 3.0 mi Calm Calm - N/A   Clear
5:25 AM 54.0 °F 52.0 °F 93% 29.96 in 2.0 mi Calm Calm - N/A   Clear
5:34 AM 54.0 °F 52.0 °F 93% 29.96 in 1.8 mi Calm Calm - N/A   Clear
5:45 AM 53.1 °F 52.0 °F 96% 29.95 in 2.0 mi Calm Calm - N/A   Clear
5:53 AM 53.1 °F 52.0 °F 96% 29.95 in 2.0 mi Calm Calm - N/A   Clear
6:02 AM 52.0 °F 51.1 °F 97% 29.96 in 0.8 mi Calm Calm - N/A   Clear
6:40 AM 53.1 °F 52.0 °F 96% 29.97 in 0.2 mi Calm Calm - N/A Fog Fog
6:53 AM 55.0 °F 54.0 °F 96% 29.97 in 0.5 mi Calm Calm - N/A Fog Fog
6:59 AM 55.9 °F 55.0 °F 97% 29.98 in 1.2 mi Calm Calm - N/A   Partly Cloudy
7:11 AM 57.0 °F 55.0 °F 93% 29.98 in 2.0 mi Calm Calm - N/A   Clear
7:28 AM 57.9 °F 55.9 °F 93% 29.98 in 2.5 mi Calm Calm - N/A   Mostly Cloudy
7:35 AM 59.0 °F 55.9 °F 90% 29.98 in 3.0 mi Calm Calm - N/A   Mostly Cloudy
7:53 AM 59.0 °F 55.9 °F 90% 29.98 in 6.0 mi West 3.5 mph - N/A   Overcast
8:53 AM 62.1 °F 57.0 °F 84% 29.99 in 8.0 mi Calm Calm - N/A   Overcast
9:53 AM 64.0 °F 57.9 °F 80% 29.99 in 8.0 mi North 3.5 mph - N/A   Overcast
11:53 AM 70.0 °F 57.9 °F 65% 29.97 in 10.0 mi ENE 4.6 mph - N/A   Overcast
12:53 PM 70.0 °F 57.9 °F 65% 29.97 in 10.0 mi NE 3.5 mph - N/A   Overcast
1:53 PM 70.0 °F 59.0 °F 68% 29.97 in 10.0 mi Calm Calm - N/A   Overcast
4:53 PM 72.0 °F 57.9 °F 61% 29.92 in 10.0 mi East 5.8 mph - N/A   Clear
5:53 PM 71.1 °F 59.0 °F 66% 29.91 in 10.0 mi East 3.5 mph - N/A   Mostly Cloudy
6:53 PM 71.1 °F 61.0 °F 70% 29.92 in 10.0 mi SSW 3.5 mph - N/A   Overcast
7:53 PM 69.1 °F 61.0 °F 75% 29.92 in 10.0 mi South 4.6 mph - N/A   Overcast
8:53 PM 68.0 °F 61.0 °F 78% 29.93 in 8.0 mi SSE 4.6 mph - N/A   Overcast
9:53 PM 66.9 °F 61.0 °F 81% 29.93 in 8.0 mi SSE 4.6 mph - N/A   Overcast
10:53 PM 66.0 °F 61.0 °F 84% 29.94 in 8.0 mi South 3.5 mph - N/A   Overcast
11:53 PM 62.1 °F 59.0 °F 90% 29.93 in 7.0 mi SSE 3.5 mph - N/A   Clear